TimeEST,TemperatureF,Dew PointF,Humidity,Sea Level PressureIn,VisibilityMPH,Wind Direction,Wind SpeedMPH,Gust SpeedMPH,PrecipitationIn,Events,Conditions,WindDirDegrees,DateUTC
12:15 AM,51.8,48.2,88,30.20,7.0,NE,9.2,-,N/A,Rain,Light Rain,40,2012-11-16 05:15:00
12:35 AM,51.8,48.2,88,30.19,7.0,NNE,11.5,17.3,N/A,Rain,Light Rain,30,2012-11-16 05:35:00
12:55 AM,51.8,48.2,88,30.19,7.0,NNE,9.2,-,N/A,Rain,Light Rain,30,2012-11-16 05:55:00
1:15 AM,51.8,48.2,88,30.20,7.0,NNE,8.1,17.3,N/A,Rain,Light Rain,20,2012-11-16 06:15:00
1:35 AM,51.8,48.2,88,30.19,7.0,NNE,9.2,-,N/A,Rain,Light Rain,20,2012-11-16 06:35:00
1:55 AM,51.8,48.2,88,30.19,10.0,NNE,11.5,-,N/A,Rain,Light Rain,30,2012-11-16 06:55:00
2:15 AM,51.8,48.2,88,30.19,10.0,NNE,11.5,18.4,N/A,Rain,Light Rain,20,2012-11-16 07:15:00
2:35 AM,51.8,48.2,88,30.19,7.0,NNE,11.5,17.3,N/A,Rain,Light Rain,20,2012-11-16 07:35:00
2:55 AM,51.8,48.2,88,30.19,7.0,NNE,11.5,16.1,N/A,Rain,Light Rain,20,2012-11-16 07:55:00
3:15 AM,51.8,48.2,88,30.18,10.0,NNE,11.5,17.3,N/A,Rain,Light Rain,20,2012-11-16 08:15:00
3:35 AM,51.8,48.2,88,30.18,10.0,NNE,11.5,-,N/A,,Light Drizzle,20,2012-11-16 08:35:00
3:55 AM,51.8,48.2,88,30.20,10.0,North,9.2,-,N/A,Rain,Rain,360,2012-11-16 08:55:00
4:15 AM,51.8,46.4,82,30.20,10.0,North,11.5,19.6,N/A,,Unknown,360,2012-11-16 09:15:00
4:35 AM,48.2,44.6,87,30.19,10.0,North,16.1,21.9,N/A,,Unknown,10,2012-11-16 09:35:00
4:55 AM,50.0,44.6,82,30.20,10.0,North,8.1,19.6,N/A,,Unknown,360,2012-11-16 09:55:00
5:15 AM,50.0,46.4,87,30.19,10.0,North,15.0,20.7,N/A,,Unknown,360,2012-11-16 10:15:00
5:35 AM,50.0,46.4,87,30.19,10.0,North,12.7,24.2,N/A,,Unknown,360,2012-11-16 10:35:00
5:55 AM,50.0,46.4,87,30.20,10.0,North,13.8,23.0,N/A,,Unknown,360,2012-11-16 10:55:00
6:15 AM,50.0,46.4,87,30.21,10.0,North,11.5,18.4,N/A,,Unknown,360,2012-11-16 11:15:00
6:55 AM,50.0,46.4,87,30.22,10.0,North,13.8,19.6,N/A,,Unknown,360,2012-11-16 11:55:00
7:15 AM,50.0,46.4,87,30.22,10.0,North,15.0,20.7,N/A,,Unknown,10,2012-11-16 12:15:00
7:55 AM,50.0,46.4,87,30.23,10.0,North,13.8,20.7,N/A,,Unknown,10,2012-11-16 12:55:00
8:15 AM,51.8,46.4,82,30.24,10.0,North,12.7,18.4,N/A,,Unknown,10,2012-11-16 13:15:00
8:35 AM,51.8,44.6,76,30.24,10.0,North,12.7,19.6,N/A,,Unknown,10,2012-11-16 13:35:00
8:55 AM,51.8,44.6,76,30.25,10.0,North,15.0,-,N/A,,Unknown,10,2012-11-16 13:55:00
9:15 AM,51.8,44.6,76,30.25,10.0,North,15.0,21.9,N/A,,Unknown,10,2012-11-16 14:15:00
9:55 AM,51.8,44.6,76,30.26,10.0,North,13.8,19.6,N/A,,Unknown,10,2012-11-16 14:55:00
10:15 AM,51.8,44.6,76,30.25,10.0,North,12.7,17.3,N/A,,Unknown,10,2012-11-16 15:15:00
10:55 AM,53.6,44.6,72,30.25,10.0,North,16.1,23.0,N/A,,Unknown,10,2012-11-16 15:55:00
11:15 AM,53.6,44.6,72,30.25,10.0,North,17.3,21.9,N/A,,Unknown,10,2012-11-16 16:15:00
11:55 AM,53.6,44.6,72,30.25,10.0,North,17.3,24.2,N/A,,Unknown,10,2012-11-16 16:55:00
12:15 PM,53.6,44.6,72,30.25,10.0,North,16.1,-,N/A,,Unknown,10,2012-11-16 17:15:00
12:35 PM,51.8,44.6,76,30.25,10.0,North,13.8,20.7,N/A,,Unknown,10,2012-11-16 17:35:00
12:55 PM,53.6,44.6,72,30.26,10.0,North,11.5,18.4,N/A,,Unknown,10,2012-11-16 17:55:00
1:15 PM,51.8,44.6,76,30.25,10.0,North,15.0,19.6,N/A,,Unknown,10,2012-11-16 18:15:00
1:35 PM,51.8,44.6,76,30.25,10.0,North,16.1,20.7,N/A,,Unknown,360,2012-11-16 18:35:00
1:55 PM,51.8,44.6,76,30.25,10.0,North,15.0,20.7,N/A,,Unknown,10,2012-11-16 18:55:00
2:15 PM,51.8,44.6,76,30.25,10.0,North,15.0,21.9,N/A,,Unknown,10,2012-11-16 19:15:00
2:35 PM,51.8,44.6,76,30.26,10.0,North,12.7,20.7,N/A,,Unknown,10,2012-11-16 19:35:00
2:55 PM,51.8,44.6,76,30.26,10.0,North,16.1,20.7,N/A,,Unknown,360,2012-11-16 19:55:00
3:15 PM,51.8,44.6,76,30.27,10.0,North,13.8,20.7,N/A,,Unknown,10,2012-11-16 20:15:00
3:55 PM,50.0,42.8,76,30.27,10.0,North,15.0,20.7,N/A,,Unknown,10,2012-11-16 20:55:00
4:15 PM,50.0,42.8,76,30.27,10.0,North,15.0,20.7,N/A,,Unknown,10,2012-11-16 21:15:00
4:35 PM,50.0,42.8,76,30.28,10.0,North,12.7,23.0,N/A,,Unknown,10,2012-11-16 21:35:00
4:55 PM,50.0,42.8,76,30.28,10.0,North,10.4,17.3,N/A,,Unknown,10,2012-11-16 21:55:00
5:15 PM,50.0,42.8,76,30.29,10.0,North,13.8,17.3,N/A,,Unknown,10,2012-11-16 22:15:00
5:35 PM,50.0,42.8,76,30.29,10.0,North,9.2,-,N/A,,Unknown,10,2012-11-16 22:35:00
5:55 PM,50.0,42.8,76,30.30,10.0,North,13.8,20.7,N/A,,Unknown,10,2012-11-16 22:55:00
6:15 PM,50.0,42.8,76,30.30,10.0,North,13.8,17.3,N/A,,Unknown,10,2012-11-16 23:15:00
6:55 PM,50.0,42.8,76,30.31,10.0,NNE,8.1,-,N/A,,Unknown,20,2012-11-16 23:55:00
7:15 PM,50.0,41.0,71,30.31,10.0,North,11.5,17.3,N/A,,Unknown,10,2012-11-17 00:15:00
7:35 PM,50.0,41.0,71,30.31,10.0,North,11.5,19.6,N/A,,Unknown,10,2012-11-17 00:35:00
7:55 PM,50.0,41.0,71,30.32,10.0,NNE,11.5,18.4,N/A,,Unknown,20,2012-11-17 00:55:00
8:15 PM,50.0,41.0,71,30.32,10.0,NNE,11.5,-,N/A,,Unknown,20,2012-11-17 01:15:00
8:35 PM,50.0,41.0,71,30.33,10.0,NNE,13.8,18.4,N/A,,Unknown,20,2012-11-17 01:35:00
8:55 PM,50.0,41.0,71,30.33,10.0,North,11.5,-,N/A,,Unknown,10,2012-11-17 01:55:00
9:15 PM,50.0,41.0,71,30.32,10.0,North,13.8,19.6,N/A,,Unknown,10,2012-11-17 02:15:00
9:35 PM,50.0,41.0,71,30.33,10.0,NNE,13.8,19.6,N/A,,Unknown,20,2012-11-17 02:35:00
9:55 PM,50.0,41.0,71,30.33,10.0,NNE,13.8,-,N/A,,Unknown,20,2012-11-17 02:55:00
10:15 PM,50.0,39.2,66,30.33,10.0,NNE,13.8,-,N/A,,Unknown,30,2012-11-17 03:15:00
10:35 PM,50.0,41.0,71,30.32,10.0,NNE,15.0,-,N/A,,Unknown,30,2012-11-17 03:35:00
10:55 PM,50.0,41.0,71,30.32,10.0,NNE,11.5,20.7,N/A,,Unknown,20,2012-11-17 03:55:00
11:15 PM,50.0,41.0,71,30.32,10.0,NNE,13.8,21.9,N/A,,Unknown,30,2012-11-17 04:15:00
11:35 PM,50.0,41.0,71,30.33,10.0,NE,15.0,-,N/A,,Unknown,40,2012-11-17 04:35:00
11:55 PM,50.0,41.0,71,30.33,10.0,NNE,12.7,19.6,N/A,,Unknown,30,2012-11-17 04:55:00